Regional Weather Roundup
Issued by NWS Portland, ME

Home | Current Version | Previous Version | Text Only | Print | Product List | Glossary On
Versions: 1 2 3 4 5 6 7 8 9 10 11 12 13 14 15 16 17 18 19 20 21 22 23 24 25 26 27 28 29 30 31 32 33 34 35 36 37 38 39 40 41 42 43 44 45 46 47 48 49 50
000
ASUS41 KGYX 252310
RWRGYX
WEATHER ROUNDUP FOR MAINE AND NEW HAMPSHIRE
NATIONAL WEATHER SERVICE GRAY ME
700 PM EDT SUN SEP 25 2016

MEZ002-005-006-010-012-015-018-020-021-024-026-027-029-260000-
MAINE

CITY           SKY/WX    TMP DP  RH WIND       PRES   REMARKS
PORTLAND       MOCLDY    56  34  43 N10       30.12R
SANFORD        CLEAR     56  35  45 NW7       30.12R
BAR HARBOR     PTCLDY   N/A N/A N/A W6        30.07R
WISCASSET      CLOUDY    57  36  45 VRB5      30.12R
ROCKLAND       CLOUDY    55  37  50 NW5       30.09R
FRYEBURG       MOCLDY    54  34  46 N6        30.13R
LEWISTONAUBURN PTCLDY    54  36  50 NW9       30.13R
AUGUSTA        MOCLDY    53  36  52 NW8       30.11R
WATERVILLE     MOCLDY    52  38  58 NW7       30.09R
BANGOR         PTCLDY    50  40  68 W6        30.08R
GREENVILLE       N/A     47  39  74 NW8       30.06R
MILLINOCKET    MOCLDY    49  35  58 NW3       30.07R
HOULTON        CLEAR     43  39  86 NW5       30.02R
PRESQUE ISLE   CLEAR     47  37  68 NW9       30.04R
FRENCHVILLE    CLEAR     46  35  65 NW12      30.02R
CARIBOU        MOCLDY    48  37  65 NW9       30.02R
$$

NHZ002-005-008-009-011-012-014-260000-
NEW HAMPSHIRE

CITY           SKY/WX    TMP DP  RH WIND       PRES   REMARKS
PORTSMOUTH     PTCLDY    56  36  47 NW10      30.10R
ROCHESTER      CLEAR     54  36  50 N3        30.12R
NASHUA         CLEAR     58  30  34 NW6       30.13R
MANCHESTER     PTCLDY    60  29  30 NW9       30.11R
CONCORD        CLEAR     57  36  45 N7        30.13R
LACONIA        CLEAR     55  36  48 W5        30.14R
PLYMOUTH       FAIR      53  36  50 NW7       30.14S
BERLIN         CLOUDY    51  36  56 N5        30.15R
WHITEFIELD     CLOUDY    50  39  66 CALM      30.15R
JAFFREY        CLEAR     52  36  54 CALM      30.14R
KEENE          CLEAR     52  39  61 CALM      30.14R
LEBANON        CLEAR     53  35  50 NE9       30.15R
MT WASHINGTON  FOG       27  27 100 NW44G52     N/A  VSB 1/16WCI   8
$$

VTZ005-007-008-260000-
VERMONT

CITY           SKY/WX    TMP DP  RH WIND       PRES   REMARKS
MONTPELIER     CLEAR     48  37  65 W5        30.19R
BURLINGTON     PTCLDY    57  34  41 CALM      30.17R
$$

MAZ007-012-024-CTZ003-RIZ002-NYZ038-NYZ072-260000-
SOUTHERN NEW ENGLAND AND NY

CITY           SKY/WX    TMP DP  RH WIND       PRES   REMARKS
BOSTON         PTCLDY    62  31  31 NW9       30.11R
WORCESTER      CLEAR     54  31  41 NW10      30.13R
NANTUCKET      CLEAR     54  40  59 N6        30.11R
PROVIDENCE     PTCLDY    61  31  32 NW9       30.12R
HARTFORD       PTCLDY    57  37  47 N3        30.14R
ALBANY         PTCLDY    57  39  51 NW3       30.14R
NEW YORK CITY  PTCLDY    69  36  29 N6        30.13R
$$

ANZ081-ANZ082-ANZ150-NHZ014-MEZ023>029-260000-
COASTAL MARINE OBSERVATIONS

STATION/POSITION TIME  TEMP    WIND        PRES    WAVE
                       AIR SEA DIR/SP/G            HT/PER
                 (UTC) (F)     (DEG/KT/KT) (MB)    (FT/S)
MOUNT DESERT ROC 2300   54     310/ 13/ 14 1018.0R
MATINICUS ROCK   2300   56     330/ 20/ 22 1018.2R
ISLE OF SHOALS   2300   60     320/ 18/ 21 1019.2R
JEFFREYS LEDGE   2238      62                N/A     3/12
CASHES LEDGE BUO 2250   58 60  320/ 17/ 23 1018.3R   4/ 5
GEORGES BANK BUO 2150   58 63              1015.8    6/ 8
$$

.............KEY..............
   WCI - WIND CHILL
   TC  - TEMPERATURE IN CELSIUS
   VSB - VISIBILITY IN MILES
   HX  - HEAT INDEX
   FAIR- INDICATES FEW OR NO CLOUDS BELOW 12,000 FT, WITH NO
         SIGNIFICANT WEATHER AND/OR OBSTRUCTIONS TO VISIBILITY.





USA.gov is the U.S. government's official web portal to all federal, state and local government web resources and services.